Location: Cadenet
(43.7345°N, 5.3750°E)
Time: 14:56:31
(UTC+00:00)

Cosmos 1743 Rocket - Pass Details

Date: 18 February 2020
Orbit: 604 x 633 km, 82.6° (Epoch: 27 March)

Event Time Altitude Azimuth Distance (km) Brightness Sun altitude
Rises 05:25:02 0° 340° (NNW) 2,870 6.7 -13.1°
Reaches altitude 10° 05:27:29 10° 329° (NNW) 1,961 5.8 -12.6°
Maximum altitude 05:31:10 28° 271° (W) 1,144 4.3 -12.0°
Drops below altitude 10° 05:34:51 10° 212° (SSW) 1,950 5.9 -11.3°
Sets 05:37:17 0° 200° (SSW) 2,850 6.8 -10.9°
